Rantoul, IL

2:57 PM CDT on June 23, 2017 (GMT -0500)
Rantoul

Weather History for KTIP - May, 2014

Change the Weather History Date:

Tuesday, May 6, 2014

  Actual Average (KCMI) Record (KCMI)
Temperature  
Mean Temperature 64 °F -  
Max Temperature 79 °F 71 °F 93 °F (2004)
Min Temperature 50 °F 48 °F 37 °F (2006)
Growing Degree Days 14 (Base 50)    
Moisture  
Dew Point 42 °F    
Average Humidity 41    
Maximum Humidity 65    
Minimum Humidity 28    
Precipitation  
Precipitation 0.00 in - - ()
Sea Level Pressure  
Sea Level Pressure 29.86 in    
Wind  
Wind Speed 13 mph (East)    
Max Wind Speed 21 mph    
Max Gust Speed 25 mph    
Visibility 10 miles    
Events      
Averages and records for this station are not official NWS values.
T = Trace of Precipitation, MM = Missing Value Source: NWS Daily Summary

Daily Weather History Graph

Daily Weather History Graph

Search for Another Location

Airport or City:

Trip Planner

Search our weather history database for the weather conditions in past years. The results will help you decide how hot, cold, wet, or windy it might be!

Date:

Astronomy

May. 06, 2014 Rise Set
Actual Time 5:46 AM CDT 7:53 PM CDT
Civil Twilight 5:16 AM CDT 8:23 PM CDT
Nautical Twilight 4:39 AM CDT 8:59 PM CDT
Astronomical Twilight 3:59 AM CDT 9:40 PM CDT
Moon 12:01 PM CDT (5/6) 1:11 AM CDT (5/6)
Length of Visible Light 15h 07m
Length of Day
14h 07m
Waxing Crescent, 46% of the Moon is Illuminated
May 6
Waxing Crescent
May 6
First Quarter
May 14
Full
May 21
Last Quarter
May 28
New

Hourly Weather History & Observations

Time (CDT) Temp. Dew Point Humidity Pressure Visibility Wind Dir Wind Speed Gust Speed Precip Events Conditions
12:15 AM 54.3 °F 38.1 °F 54% 29.92 in 10.0 mi NE 11.5 mph - N/A   Clear
12:35 AM 54.0 °F 37.6 °F 54% 29.92 in 10.0 mi ENE 11.5 mph - N/A   Clear
12:55 AM 53.6 °F 37.4 °F 54% 29.92 in 10.0 mi ENE 12.7 mph - N/A   Clear
1:15 AM 53.2 °F 37.4 °F 55% 29.92 in 10.0 mi ENE 11.5 mph - N/A   Clear
1:35 AM 52.7 °F 37.4 °F 56% 29.91 in 10.0 mi ENE 12.7 mph - N/A   Clear
1:55 AM 52.7 °F 36.7 °F 55% 29.91 in 10.0 mi ENE 12.7 mph - N/A   Clear
2:15 AM 52.2 °F 36.5 °F 55% 29.91 in 10.0 mi ENE 13.8 mph 18.4 mph N/A   Clear
2:35 AM 51.8 °F 36.5 °F 56% 29.91 in 10.0 mi ENE 11.5 mph - N/A   Clear
6:55 AM 50.0 °F 38.7 °F 65% 29.93 in 10.0 mi ENE 12.7 mph - N/A   Clear
7:15 AM 51.3 °F 38.7 °F 62% 29.94 in 10.0 mi East 16.1 mph - N/A   Clear
7:35 AM 53.1 °F 38.1 °F 57% 29.94 in 10.0 mi East 13.8 mph - N/A   Clear
7:55 AM 54.5 °F 37.6 °F 53% 29.94 in 10.0 mi East 16.1 mph - N/A   Clear
8:15 AM 55.8 °F 36.9 °F 49% 29.94 in 10.0 mi East 16.1 mph - N/A   Clear
8:35 AM 57.2 °F 37.4 °F 48% 29.94 in 10.0 mi East 16.1 mph 21.9 mph N/A   Clear
9:15 AM 59.9 °F 36.7 °F 42% 29.93 in 10.0 mi East 17.3 mph - N/A   Clear
9:35 AM 61.3 °F 36.3 °F 39% 29.93 in 10.0 mi East 17.3 mph 23.0 mph N/A   Clear
9:55 AM 62.6 °F 35.6 °F 37% 29.92 in 10.0 mi East 17.3 mph 24.2 mph N/A   Clear
10:15 AM 64.4 °F 35.6 °F 34% 29.92 in 10.0 mi East 17.3 mph 21.9 mph N/A   Clear
10:35 AM 65.5 °F 36.1 °F 34% 29.92 in 10.0 mi East 18.4 mph - N/A   Clear
10:55 AM 66.9 °F 36.3 °F 32% 29.92 in 10.0 mi East 18.4 mph - N/A   Clear
11:15 AM 68.0 °F 37.0 °F 32% 29.91 in 10.0 mi East 16.1 mph 19.6 mph N/A   Clear
11:35 AM 68.7 °F 37.4 °F 32% 29.91 in 10.0 mi East 16.1 mph 24.2 mph N/A   Clear
11:55 AM 70.2 °F 37.9 °F 31% 29.90 in 10.0 mi East 15.0 mph 20.7 mph N/A   Clear
12:15 PM 71.1 °F 38.3 °F 30% 29.89 in 10.0 mi East 16.1 mph - N/A   Clear
12:35 PM 72.3 °F 38.7 °F 29% 29.88 in 10.0 mi East 13.8 mph 21.9 mph N/A   Clear
12:55 PM 73.6 °F 39.7 °F 29% 29.88 in 10.0 mi ESE 13.8 mph 20.7 mph N/A   Clear
1:15 PM 75.0 °F 39.7 °F 28% 29.88 in 10.0 mi ESE 12.7 mph 20.7 mph N/A   Clear
1:35 PM 75.4 °F 40.5 °F 28% 29.87 in 10.0 mi ESE 6.9 mph 19.6 mph N/A   Clear
1:55 PM 76.3 °F 41.5 °F 29% 29.87 in 10.0 mi ESE 15.0 mph 18.4 mph N/A   Clear
2:15 PM 76.3 °F 41.2 °F 28% 29.86 in 10.0 mi East 10.4 mph 21.9 mph N/A   Clear
2:35 PM 77.2 °F 42.1 °F 29% 29.85 in 10.0 mi East 12.7 mph 19.6 mph N/A   Clear
3:15 PM 77.9 °F 42.3 °F 28% 29.84 in 10.0 mi East 12.7 mph 21.9 mph N/A   Clear
3:35 PM 78.6 °F 42.6 °F 28% 29.83 in 10.0 mi East 15.0 mph 20.7 mph N/A   Clear
3:55 PM 79.3 °F 43.2 °F 28% 29.83 in 10.0 mi ESE 15.0 mph 23.0 mph N/A   Clear
4:15 PM 79.2 °F 43.5 °F 28% 29.82 in 10.0 mi ESE 12.7 mph 21.9 mph N/A   Clear
4:35 PM 79.3 °F 43.7 °F 28% 29.82 in 10.0 mi ESE 18.4 mph 25.3 mph N/A   Clear
4:55 PM 79.0 °F 44.4 °F 29% 29.83 in 10.0 mi ESE 15.0 mph 19.6 mph N/A   Clear
5:15 PM 78.1 °F 44.6 °F 30% 29.81 in 10.0 mi ESE 17.3 mph - N/A   Clear
5:35 PM 78.3 °F 45.3 °F 31% 29.80 in 10.0 mi ESE 15.0 mph 20.7 mph N/A   Clear
5:55 PM 78.8 °F 45.1 °F 30% 29.81 in 10.0 mi ESE 17.3 mph - N/A   Clear
6:15 PM 78.1 °F 45.5 °F 32% 29.80 in 10.0 mi ESE 15.0 mph 23.0 mph N/A   Clear
6:35 PM 77.4 °F 45.5 °F 32% 29.79 in 10.0 mi ESE 16.1 mph - N/A   Clear
6:55 PM 76.3 °F 46.9 °F 35% 29.79 in 5.0 mi ESE 13.8 mph - N/A   Haze
7:15 PM 75.4 °F 47.1 °F 37% 29.80 in 10.0 mi ESE 12.7 mph - N/A   Clear
7:35 PM 74.3 °F 47.7 °F 39% 29.81 in 10.0 mi Calm Calm - N/A   Clear
7:55 PM 73.2 °F 47.8 °F 41% 29.81 in 10.0 mi Calm Calm - N/A   Clear
8:15 PM 72.3 °F 47.7 °F 41% 29.82 in 10.0 mi Calm Calm - N/A   Clear
8:35 PM 71.2 °F 48.0 °F 44% 29.82 in 10.0 mi Calm Calm - N/A   Clear
8:55 PM 70.2 °F 48.7 °F 46% 29.83 in 10.0 mi Calm Calm - N/A   Scattered Clouds
9:15 PM 70.2 °F 48.6 °F 46% 29.82 in 10.0 mi Calm Calm - N/A   Scattered Clouds
9:35 PM 69.3 °F 48.7 °F 48% 29.82 in 10.0 mi Calm Calm - N/A   Clear
9:55 PM 68.5 °F 49.1 °F 50% 29.82 in 10.0 mi Calm Calm - N/A   Clear
10:15 PM 68.9 °F 49.3 °F 50% 29.79 in 10.0 mi ESE 16.1 mph - N/A   Clear
10:35 PM 69.8 °F 50.0 °F 49% 29.79 in 10.0 mi ESE 16.1 mph - N/A   Clear
10:55 PM 68.0 °F 49.5 °F 51% 29.81 in 10.0 mi SE 4.6 mph - N/A   Clear
11:15 PM 68.5 °F 50.0 °F 52% 29.80 in 10.0 mi ESE 20.7 mph 25.3 mph N/A   Clear
11:35 PM 67.6 °F 50.0 °F 53% 29.82 in 10.0 mi Calm Calm - N/A   Clear
11:55 PM 67.1 °F 50.5 °F 55% 29.82 in 10.0 mi Calm Calm - N/A   Clear